Weather reports worldwide

Advertisment
Muret-Lherm, France (7628): temperature & dewpoint: 13.03.2019 10:00:00 - 19.03.2019 10:00:00 (CET)Muret-Lherm, France (7628): wind speed & gusts: 13.03.2019 10:00:00 - 19.03.2019 10:00:00 (CET)Muret-Lherm, France (7628): wind direction: 13.03.2019 10:00:00 - 19.03.2019 10:00:00 (CET)Muret-Lherm, France (7628): reduced air pressure: 13.03.2019 10:00:00 - 19.03.2019 10:00:00 (CET)Muret-Lherm, France (7628): visibility: 13.03.2019 10:00:00 - 19.03.2019 10:00:00 (CET)Muret-Lherm, France (7628): precipitation: 13.03.2019 10:00:00 - 19.03.2019 10:00:00 (CET)
Date & Time tt [°C] td [°C] ff [km/h] ff [kn] fx [km/h] fx [kn] dd ppp [hPa] vv [km] rr [mm]
19.03.2019 10:00:00 - - - - - - - - - -
19.03.2019 09:00:00 6,4 5,2 11 6 16 9 NW 1027,8 14 0,0
19.03.2019 08:00:00 5,9 4,7 9 5 16 9 W 1027,4 13 0,0
19.03.2019 07:00:00 5,4 4,4 11 6 21 11 W 1026,7 20 -
19.03.2019 06:00:00 5,4 4,0 13 7 18 10 WNW 1026,7 20 0,0
19.03.2019 05:00:00 5,3 3,9 11 6 18 10 W 1026,6 20 0,0
19.03.2019 04:00:00 5,2 3,7 13 7 24 13 WNW 1026,5 80 0,4
19.03.2019 03:00:00 5,6 3,8 11 6 22 12 WNW 1026,8 18 0,0
19.03.2019 02:00:00 6,1 3,3 11 6 37 20 NW 1027,1 20 0,4
19.03.2019 01:00:00 7,7 3,7 13 7 24 13 W 1026,8 20 -
19.03.2019 00:00:00 7,9 3,7 16 9 22 12 W 1027,2 20 0,0
18.03.2019 23:00:00 7,9 3,5 11 6 18 10 WNW 1027,5 20 0,0
18.03.2019 22:00:00 8,0 4,2 13 7 22 12 WNW 1027,5 20 0,0
18.03.2019 21:00:00 8,4 4,2 11 6 28 15 WNW 1027,0 20 0,0
18.03.2019 20:00:00 8,6 4,0 11 6 42 23 NW 1026,7 20 0,0
18.03.2019 19:00:00 10,4 1,7 11 6 28 15 WNW 1026,1 20 -
18.03.2019 18:00:00 11,2 1,7 22 12 31 17 NW 1026,0 20 0,0
18.03.2019 17:00:00 12,2 1,2 21 11 29 16 WNW 1025,6 20 0,0
18.03.2019 16:00:00 12,0 0,7 22 12 31 17 WNW 1026,0 20 0,0
18.03.2019 15:00:00 12,5 0,6 18 10 39 21 NW 1026,2 20 0,0
18.03.2019 14:00:00 11,9 -0,3 21 11 34 18 WNW 1026,9 20 0,0
18.03.2019 13:00:00 11,2 0,6 21 11 34 18 NW 1027,8 20 -
18.03.2019 12:00:00 11,3 1,8 22 12 35 19 WNW 1028,0 20 0,0
18.03.2019 11:00:00 10,6 3,1 18 10 34 18 WNW 1028,1 19 0,0
18.03.2019 10:00:00 8,8 4,2 18 10 28 15 WNW 1028,0 20 0,0
18.03.2019 09:00:00 7,3 4,4 15 8 22 12 WNW 1027,6 20 0,0
18.03.2019 08:00:00 5,2 3,4 13 7 21 11 WNW 1027,3 20 0,0
18.03.2019 07:00:00 4,4 2,4 13 7 22 12 W 1026,7 20 -
18.03.2019 06:00:00 5,4 3,4 13 7 31 17 W 1026,3 20 0,2
18.03.2019 05:00:00 5,9 3,1 18 10 28 15 WNW 1025,6 20 0,0
18.03.2019 04:00:00 5,9 2,7 21 11 31 17 W 1025,3 20 0,0
18.03.2019 03:00:00 5,9 2,5 16 9 28 15 W 1025,3 20 0,0
18.03.2019 02:00:00 6,1 2,7 18 10 31 17 W 1025,6 20 0,0
18.03.2019 01:00:00 5,8 2,4 16 9 26 14 W 1026,0 20 -
18.03.2019 00:00:00 5,6 2,1 13 7 24 13 W 1026,1 20 0,0
17.03.2019 23:00:00 5,8 1,9 13 7 21 11 W 1025,9 20 0,0
17.03.2019 22:00:00 6,8 1,5 15 8 35 19 W 1025,4 20 0,0
17.03.2019 21:00:00 7,9 1,9 18 10 37 20 WNW 1024,5 20 0,0
17.03.2019 20:00:00 8,8 1,5 24 13 37 20 WNW 1023,3 20 0,0
17.03.2019 19:00:00 9,7 2,3 21 11 46 25 W 1022,4 20 -
17.03.2019 18:00:00 10,9 4,1 29 16 50 27 WNW 1021,4 20 0,0
17.03.2019 17:00:00 11,7 4,4 29 16 48 26 WNW 1021,0 20 0,0
17.03.2019 16:00:00 11,2 5,1 35 19 54 29 WNW 1020,7 20 0,0
17.03.2019 15:00:00 10,3 7,2 28 15 61 33 NW 1020,8 19 0,0
17.03.2019 14:00:00 13,2 7,8 31 17 52 28 WNW 1019,2 19 0,0
17.03.2019 13:00:00 13,9 7,4 28 15 39 21 W 1018,7 20 -
17.03.2019 12:00:00 14,2 8,8 21 11 29 16 SW 1019,0 19 0,0
17.03.2019 11:00:00 11,7 8,2 15 8 22 12 WSW 1019,6 19 0,0
17.03.2019 10:00:00 11,1 8,3 16 9 24 13 SW 1019,7 16 0,0
17.03.2019 09:00:00 10,2 8,8 13 7 21 11 SSW 1019,1 10 0,0
17.03.2019 08:00:00 9,4 7,5 5 3 9 5 SW 1018,7 15 0,0
17.03.2019 07:00:00 9,4 7,2 5 3 16 9 WSW 1017,9 17 -
17.03.2019 06:00:00 9,5 6,8 13 7 34 18 WNW 1016,9 19 0,0
17.03.2019 05:00:00 9,0 6,6 18 10 34 18 NW 1015,9 19 0,0
17.03.2019 04:00:00 9,6 6,1 18 10 34 18 W 1014,6 20 0,0
17.03.2019 03:00:00 3,5 2,3 9 5 39 21 S 1014,7 20 0,0
17.03.2019 02:00:00 3,3 1,2 0 0 5 3 N 1014,3 20 0,0
17.03.2019 01:00:00 6,0 4,6 5 3 8 4 S 1014,1 20 -
17.03.2019 00:00:00 5,5 3,7 8 4 11 6 SSW 1014,7 14 0,0
16.03.2019 23:00:00 6,0 3,3 5 3 9 5 S 1015,5 20 0,0
16.03.2019 22:00:00 7,3 4,1 4 2 8 4 SW 1015,9 20 0,0
16.03.2019 21:00:00 8,6 3,0 5 3 8 4 NW 1015,7 20 0,0
16.03.2019 20:00:00 11,9 4,1 4 2 8 4 E 1015,2 20 0,0
16.03.2019 19:00:00 16,7 5,0 5 3 9 5 E 1015,0 20 -
16.03.2019 18:00:00 18,6 6,4 8 4 13 7 E 1015,4 20 0,0
16.03.2019 17:00:00 20,1 5,3 5 3 11 6 E 1016,0 18 0,0
16.03.2019 16:00:00 19,2 6,6 5 3 9 5 NE 1017,0 20 0,0
16.03.2019 15:00:00 19,1 6,2 4 2 16 9 E 1018,0 18 0,0
16.03.2019 14:00:00 17,2 6,7 5 3 15 8 NE 1019,1 20 0,0
16.03.2019 13:00:00 15,8 7,0 5 3 15 8 ENE 1020,4 20 -
16.03.2019 12:00:00 14,1 6,2 5 3 15 8 NE 1021,5 20 0,0
16.03.2019 11:00:00 12,5 5,9 8 4 18 10 ESE 1022,3 20 0,0
16.03.2019 10:00:00 11,4 5,5 8 4 16 9 E 1023,3 20 0,0
16.03.2019 09:00:00 10,3 5,3 8 4 13 7 E 1023,9 20 0,0
16.03.2019 08:00:00 5,7 4,3 5 3 8 4 ESE 1024,6 80 0,0
16.03.2019 07:00:00 5,1 3,3 4 2 4 2 ENE 1025,1 20 -
16.03.2019 06:00:00 6,9 3,5 2 1 4 2 N 1025,6 20 0,0
16.03.2019 05:00:00 8,3 4,3 2 1 9 5 W 1025,6 20 0,0
16.03.2019 04:00:00 9,0 4,4 4 2 16 9 W 1025,9 20 0,0
16.03.2019 03:00:00 9,1 4,7 5 3 15 8 WNW 1026,8 20 0,0
16.03.2019 02:00:00 9,6 4,6 8 4 13 7 NW 1027,5 20 0,0
16.03.2019 01:00:00 9,7 5,1 8 4 18 10 WNW 1027,9 20 -
16.03.2019 00:00:00 10,1 5,5 11 6 18 10 NW 1028,4 20 0,0
15.03.2019 23:00:00 10,4 5,6 11 6 24 13 WNW 1028,7 20 0,0
15.03.2019 22:00:00 10,6 6,7 13 7 21 11 WNW 1028,8 20 0,0
15.03.2019 21:00:00 10,9 6,6 13 7 24 13 WNW 1028,6 20 0,0
15.03.2019 20:00:00 11,3 7,0 13 7 24 13 W 1028,7 20 0,0
15.03.2019 19:00:00 11,6 7,1 15 8 26 14 W 1028,3 20 -
15.03.2019 18:00:00 12,0 7,5 16 9 29 16 W 1027,7 20 0,0
15.03.2019 17:00:00 12,5 7,2 22 12 34 18 W 1027,3 20 0,0
15.03.2019 16:00:00 12,3 7,4 21 11 31 17 W 1027,7 20 0,0
15.03.2019 15:00:00 12,3 7,2 24 13 35 19 WNW 1027,8 20 0,0
15.03.2019 14:00:00 12,2 6,9 26 14 42 23 W 1028,0 20 0,0
15.03.2019 13:00:00 12,5 7,0 24 13 37 20 W 1028,1 20 -
15.03.2019 12:00:00 12,9 6,9 29 16 48 26 WNW 1028,4 20 0,0
15.03.2019 11:00:00 12,6 7,3 28 15 44 24 W 1028,8 20 0,0
15.03.2019 10:00:00 10,9 6,6 26 14 44 24 WNW 1029,1 20 0,0
15.03.2019 09:00:00 10,0 6,3 18 10 31 17 W 1029,3 20 0,0
15.03.2019 08:00:00 9,3 5,8 18 10 34 18 W 1029,1 20 0,0
15.03.2019 07:00:00 9,0 5,7 22 12 52 28 W 1029,0 20 -
15.03.2019 06:00:00 9,1 5,6 35 19 54 29 W 1028,3 20 0,0
15.03.2019 05:00:00 9,2 5,4 31 17 46 25 W 1028,5 20 0,0
15.03.2019 04:00:00 9,6 5,6 22 12 46 25 W 1029,2 20 0,0
15.03.2019 03:00:00 9,4 5,6 26 14 46 25 W 1029,2 20 0,0
15.03.2019 02:00:00 9,4 5,8 31 17 48 26 W 1029,2 20 0,0
15.03.2019 01:00:00 8,9 5,8 26 14 46 25 W 1029,5 20 -
15.03.2019 00:00:00 8,9 6,0 28 15 42 23 W 1029,5 20 0,0
14.03.2019 23:00:00 8,7 6,7 29 16 52 28 W 1029,6 6 0,0
14.03.2019 22:00:00 9,1 5,8 28 15 48 26 W 1029,4 20 0,0
14.03.2019 21:00:00 9,1 6,0 26 14 44 24 W 1028,9 20 0,0
14.03.2019 20:00:00 9,4 6,1 22 12 44 24 W 1028,8 20 0,0
14.03.2019 19:00:00 10,2 5,6 29 16 48 26 WNW 1028,3 19 -
14.03.2019 18:00:00 11,4 5,7 29 16 50 27 W 1027,3 20 0,0
14.03.2019 17:00:00 11,7 5,6 37 20 61 33 W 1027,1 20 0,0
14.03.2019 16:00:00 12,0 5,2 35 19 52 28 WNW 1027,2 20 0,0
14.03.2019 15:00:00 11,3 7,4 26 14 57 31 W 1027,4 20 0,0
14.03.2019 14:00:00 12,2 5,6 35 19 55 30 W 1027,8 20 0,0
14.03.2019 13:00:00 11,4 5,9 39 21 54 29 WNW 1028,9 20 -
14.03.2019 12:00:00 10,0 6,5 22 12 41 22 WNW 1029,4 20 0,0
14.03.2019 11:00:00 9,4 7,0 24 13 42 23 WNW 1029,8 20 0,4
14.03.2019 10:00:00 9,4 6,3 26 14 35 19 W 1030,0 20 0,0
14.03.2019 09:00:00 7,8 6,3 18 10 37 20 W 1030,5 80 0,2
14.03.2019 08:00:00 7,4 5,4 22 12 34 18 W 1030,1 80 0,0
14.03.2019 07:00:00 7,0 5,3 16 9 34 18 W 1029,7 20 -
14.03.2019 06:00:00 7,1 5,2 18 10 34 18 W 1029,7 80 0,0
14.03.2019 05:00:00 7,2 5,0 21 11 41 22 W 1029,7 20 0,0
14.03.2019 04:00:00 6,8 5,3 18 10 28 15 W 1029,9 20 0,4
14.03.2019 03:00:00 7,2 5,2 22 12 31 17 W 1030,3 18 0,0
14.03.2019 02:00:00 7,4 5,0 24 13 35 19 W 1030,7 20 0,0
14.03.2019 01:00:00 6,8 4,8 18 10 34 18 W 1030,9 20 -
14.03.2019 00:00:00 7,1 4,7 22 12 37 20 W 1030,8 80 0,0
13.03.2019 23:00:00 7,4 4,9 26 14 41 22 W 1030,3 80 0,0
13.03.2019 22:00:00 7,1 4,4 24 13 41 22 W 1029,7 80 0,0
13.03.2019 21:00:00 7,7 4,3 28 15 41 22 W 1029,1 80 0,0
13.03.2019 20:00:00 8,3 4,3 28 15 42 23 W 1028,3 80 0,0
13.03.2019 19:00:00 8,2 4,8 28 15 44 24 W 1027,5 80 -
13.03.2019 18:00:00 9,5 5,7 29 16 48 26 W 1026,7 80 0,0
13.03.2019 17:00:00 10,1 5,1 31 17 52 28 WNW 1025,9 80 0,0
13.03.2019 16:00:00 10,4 6,3 28 15 42 23 W 1025,6 80 0,0
13.03.2019 15:00:00 9,1 6,9 29 16 54 29 WNW 1025,7 80 0,6
13.03.2019 14:00:00 8,4 6,0 31 17 54 29 NW 1025,7 80 0,4
13.03.2019 13:00:00 10,2 5,2 28 15 54 29 W 1026,0 80 -
13.03.2019 12:00:00 11,3 5,0 34 18 52 28 W 1025,9 80 0,0
13.03.2019 11:00:00 9,7 4,9 29 16 48 26 W 1026,3 80 0,0
13.03.2019 10:00:00 8,8 5,0 28 15 42 23 W 1026,7 20 0,0

tt = temperature
td = dewpoint
ff = wind speed
fx = gusts
dd = wind direction
ppp = reduced air pressure
vv = visibility
rr = precipitation

Next stations